[[{"header":{"parameterUnit":"m.s-1","parameterCategory":1,"la1":30.2991,"la2":30.254,"lo1":-89.0895,"lo2":-89.0444,"dy":0.0017,"dx":0.0017,"nx":28,"ny":28,"refTime":"2023-07-31T09:00:00:Z","depth":0,"parameterNumber":2,"parameterNumberName":"U-component_of_WINDS"},"data":[0,0,0,0,0,0,0,0,0,0,0,0,0,0,0,0,0,0,0,0,0,0,0,0,0,0,0,0,0,0,0,0,0,0,0,0,0,0,0,0,0,0,0,0,0,0,0,0,0,0,0,0,0,0,0,0,0,0,0.6022,0.6022,0,0.598,0.598,0.5979,0.5888,0.5887,0.5885,0.5883,0.5845,0.5846,0.5846,0,0,0,0,0,0,0,0,0,0,0,0,0,0.6027,0.6027,0.6023,0.6022,0.6021,0.598,0.598,0.5979,0.5889,0.5886,0.5884,0.5882,0.5845,0.5846,0.5846,0,0,0,0,0,0,0,0,0,0,0,0,0,0.6009,0.6027,0.6023,0.5971,0.5966,0.5981,0.598,0.5979,0.5889,0.5886,0.5884,0.5881,0.5844,0.5845,0.5847,0.5909,0,0,0.585,0.585,0,0,0,0,0,0,0,0,0.601,0.6009,0.5979,0.5975,0.5969,0.5937,0.5967,0.5956,0.589,0.5919,0.5883,0.588,0.5878,0.5876,0.5875,0.5907,0.5906,0.585,0.5851,0.5851,0.5851,0,0,0,0,0,0,0,0.6011,0.601,0.6006,0.5979,0.5973,0.5951,0.5945,0.5965,0.5915,0.5916,0.5909,0.5905,0.5875,0.5874,0.5873,0.5905,0.585,0.5851,0.5852,0.5852,0.5985,0.5987,0,0,0,0,0,0,0.602,0.6012,0.6007,0.6005,0.5983,0.5953,0.5947,0.595,0.5914,0.5906,0.5908,0.5901,0.5873,0.5872,0.5871,0.5942,0.5851,0.5852,0.5853,0.5982,0.5985,0.5988,0,0,0,0,0,0,0.602,0.602,0.6009,0.6006,0.6003,0.5956,0.596,0.5951,0.595,0.5908,0.5899,0.5916,0.5871,0.587,0.5899,0.5939,0.5853,0.5854,0.5978,0.5983,0.5987,0.6083,0,0,0,0,0,0,0.6021,0.6021,0.6044,0.6007,0.6004,0.6038,0.5963,0.5952,0.5951,0.5942,0.5913,0.5906,0.5869,0.5898,0.5901,0.5939,0.5854,0.5975,0.598,0.5985,0.6077,0.609,0.6102,0,0,0,0,0,0.6021,0.6074,0.6046,0.6046,0.6032,0.604,0.6038,0.5993,0.5955,0.5978,0.595,0.5907,0.5933,0.5902,0.5904,0.5943,0.5972,0.5979,0.5985,0.6071,0.6088,0.6102,0,0,0,0,0,0,0.612,0.6069,0.6037,0.6079,0.6064,0.6025,0.6053,0.6013,0.601,0.6003,0.5948,0.5942,0.5979,0.5964,0.593,0.6001,0.5946,0.5953,0.601,0.6026,0.6039,0.6043,0.5855,0,0,0,0,0,0.6146,0.6156,0.6111,0.6154,0.6147,0.6101,0.6104,0.607,0.6053,0.6047,0.6022,0.6008,0.6013,0.6018,0.6021,0.6072,0.6065,0.61,0.6113,0.6124,0.6132,0.6157,0.6172,0.601,0.601,0.6009,0,0,0.6202,0.6175,0.6185,0.6173,0.6157,0.617,0.6097,0.6114,0.6123,0.605,0.6076,0.6057,0.6038,0.6078,0.6095,0.6067,0.6174,0.6132,0.6141,0.6143,0.6165,0.6181,0.6194,0.6014,0.6013,0.6013,0,0,0.631,0.629,0.6322,0.6307,0.6283,0.6251,0.6259,0.6224,0.6208,0.6233,0.6178,0.6187,0.6198,0.6186,0.6182,0.628,0.624,0.6282,0.6351,0.6376,0.6389,0.64,0.6436,0.645,0.6289,0.6289,0.629,0,0.6383,0.6398,0.6345,0.6364,0.636,0.6291,0.6323,0.6311,0.6291,0.629,0.6257,0.6267,0.6249,0.6286,0.6309,0.6307,0.6315,0.6287,0.6391,0.6402,0.6411,0.6445,0.6459,0.6295,0.6294,0.6294,0.6293,0,0.6489,0.65,0.6529,0.6508,0.6507,0.6533,0.6484,0.6489,0.6454,0.6426,0.6451,0.6426,0.6422,0.6427,0.6394,0.6459,0.6441,0.6401,0.6345,0.6433,0.6464,0.6476,0.6303,0.6301,0.6299,0.6298,0,0,0.6663,0.6608,0.662,0.6609,0.6575,0.6583,0.6605,0.6598,0.6604,0.659,0.6608,0.6616,0.6577,0.6572,0.6536,0.6558,0.6638,0.6514,0.6513,0.6539,0.6707,0.674,0.6756,0.6609,0.6611,0.6613,0.6709,0,0.6765,0.6799,0.675,0.6795,0.6805,0.6736,0.6755,0.6737,0.671,0.6714,0.6685,0.6691,0.6639,0.6635,0.6653,0.6624,0.6671,0.6616,0.6627,0.6628,0.6636,0.6772,0.6807,0.6899,0.6721,0.6723,0.6724,0,0.689,0.688,0.6926,0.6886,0.6888,0.6907,0.6895,0.69,0.6877,0.6855,0.6847,0.6803,0.6822,0.6765,0.6791,0.6755,0.6755,0.6741,0.6743,0.6745,0.6684,0.6779,0.6927,0.6942,0.6742,0.6741,0.674,0,0.7014,0.7011,0.7038,0.703,0.6985,0.6999,0.6981,0.6955,0.6953,0.6943,0.6941,0.6934,0.6931,0.6926,0.6882,0.6844,0.6913,0.6852,0.6897,0.6898,0.6918,0.6918,0.7071,0.6914,0.6914,0.6914,0.6913,0,0.7135,0.7166,0.7093,0.711,0.7142,0.7083,0.7117,0.7092,0.7069,0.708,0.702,0.7032,0.697,0.6976,0.694,0.6967,0.6966,0.695,0.6941,0.6957,0.6959,0.6959,0.6953,0.6917,0.6916,0.6916,0.6915,0,0.7281,0.7233,0.7257,0.721,0.7199,0.7225,0.7186,0.7199,0.7166,0.718,0.7181,0.713,0.7132,0.7086,0.708,0.7056,0.7099,0.7077,0.7107,0.7101,0.7149,0.7146,0.731,0.7328,0.7158,0.716,0.7161,0,0.7363,0.7385,0.7339,0.7341,0.7325,0.7329,0.7326,0.7268,0.7267,0.724,0.7257,0.7254,0.7249,0.7256,0.722,0.7214,0.7193,0.725,0.7192,0.7207,0.7196,0.7196,0.7198,0.7264,0.7266,0.7268,0.7269,0,0.7514,0.7488,0.7484,0.7472,0.7469,0.7457,0.7442,0.7447,0.7383,0.7385,0.7386,0.7381,0.7373,0.7371,0.7358,0.734,0.7295,0.7287,0.7297,0.7316,0.7333,0.7326,0.7143,0.7285,0.7283,0.7282,0.7281,0.7281,0.7632,0.7647,0.7616,0.7614,0.7595,0.7581,0.7591,0.7557,0.7556,0.7543,0.7508,0.7515,0.7488,0.7465,0.7451,0.7455,0.7427,0.7442,0.7446,0.7452,0.7461,0.7329,0.7453,0.7452,0.7452,0.7451,0.7451,0,0.7781,0.7756,0.7754,0.7732,0.773,0.7683,0.7662,0.7665,0.767,0.7648,0.7643,0.7642,0.7639,0.76,0.7592,0.7603,0.7582,0.7603,0.7604,0.76,0.7486,0.7479,0.762,0.762,0.762,0.762,0.762,0.762,0.7858,0.7882,0.7851,0.7864,0.7839,0.7843,0.7835,0.7822,0.7804,0.7805,0.7801,0.7774,0.7745,0.7734,0.7729,0.7717,0.7718,0.7747,0.7729,0.7624,0.7608,0.7593,0.7585,0.7747,0.7747,0.7842,0.7843,0.7844]},{"header":{"parameterUnit":"m.s-1","parameterCategory":1,"la1":30.2991,"la2":30.254,"lo1":-89.0895,"lo2":-89.0444,"dy":0.0017,"dx":0.0017,"nx":28,"ny":28,"refTime":"2023-07-31T09:00:00:Z","depth":0,"parameterNumber":3,"parameterNumberName":"V-component_of_WINDS"},"data":[0,0,0,0,0,0,0,0,0,0,0,0,0,0,0,0,0,0,0,0,0,0,0,0,0,0,0,0,0,0,0,0,0,0,0,0,0,0,0,0,0,0,0,0,0,0,0,0,0,0,0,0,0,0,0,0,0,0,-0.8542,-0.8544,0,-0.8719,-0.8721,-0.8723,-0.883,-0.8831,-0.8831,-0.8832,-0.9015,-0.9019,-0.9023,0,0,0,0,0,0,0,0,0,0,0,0,0,-0.8299,-0.8303,-0.8542,-0.8544,-0.8547,-0.8719,-0.8721,-0.8724,-0.883,-0.8831,-0.8832,-0.8832,-0.9013,-0.9018,-0.9024,0,0,0,0,0,0,0,0,0,0,0,0,0,-0.8433,-0.8304,-0.8542,-0.8621,-0.8629,-0.8718,-0.8722,-0.8725,-0.883,-0.8831,-0.8832,-0.8832,-0.9012,-0.9018,-0.9024,-0.905,0,0,-0.9045,-0.9047,0,0,0,0,0,0,0,0,-0.8426,-0.8442,-0.8607,-0.8615,-0.8625,-0.8754,-0.8703,-0.8834,-0.883,-0.8754,-0.8832,-0.8833,-0.8927,-0.8941,-0.8972,-0.9058,-0.9066,-0.9045,-0.9049,-0.9052,-0.9054,0,0,0,0,0,0,0,-0.8416,-0.8435,-0.8612,-0.8609,-0.862,-0.8648,-0.8668,-0.8728,-0.8834,-0.8761,-0.8769,-0.8788,-0.8933,-0.8966,-0.8978,-0.9069,-0.9045,-0.9051,-0.9055,-0.9057,-0.9185,-0.9185,0,0,0,0,0,0,-0.8394,-0.8427,-0.8607,-0.8618,-0.8525,-0.8652,-0.8674,-0.8712,-0.8834,-0.8853,-0.8787,-0.8793,-0.8954,-0.897,-0.8984,-0.9023,-0.9052,-0.9058,-0.9062,-0.9186,-0.9185,-0.9185,0,0,0,0,0,0,-0.8388,-0.8409,-0.86,-0.8525,-0.8551,-0.8655,-0.8697,-0.8715,-0.8748,-0.8854,-0.8874,-0.8802,-0.8955,-0.8975,-0.9033,-0.903,-0.9061,-0.9067,-0.9187,-0.9186,-0.9185,-0.9098,0,0,0,0,0,0,-0.8381,-0.8406,-0.8416,-0.8524,-0.8554,-0.8644,-0.8696,-0.8718,-0.8759,-0.8767,-0.8873,-0.8891,-0.8958,-0.9022,-0.9039,-0.904,-0.9072,-0.9187,-0.9186,-0.9185,-0.9102,-0.9094,-0.9088,0,0,0,0,0,-0.8372,-0.8385,-0.8416,-0.8437,-0.8569,-0.8644,-0.8661,-0.8737,-0.8758,-0.877,-0.8838,-0.8888,-0.9028,-0.9027,-0.9047,-0.905,-0.9188,-0.9187,-0.9185,-0.9105,-0.9096,-0.9088,0,0,0,0,0,0,-0.8275,-0.84,-0.8437,-0.8485,-0.8553,-0.8661,-0.8678,-0.8725,-0.8789,-0.8794,-0.8887,-0.8909,-0.8958,-0.901,-0.9007,-0.9081,-0.9114,-0.9116,-0.9045,-0.9038,-0.9031,-0.9018,-0.9078,0,0,0,0,0,-0.8259,-0.8308,-0.8416,-0.8448,-0.848,-0.8573,-0.8608,-0.8661,-0.8735,-0.8765,-0.8837,-0.8908,-0.8969,-0.9006,-0.9068,-0.911,-0.9135,-0.9122,-0.9115,-0.9109,-0.911,-0.9137,-0.9133,-0.9181,-0.9181,-0.9181,0,0,-0.8227,-0.8302,-0.8327,-0.843,-0.8489,-0.8539,-0.8596,-0.8647,-0.8685,-0.8773,-0.8832,-0.8887,-0.8973,-0.9023,-0.9048,-0.9067,-0.9102,-0.9107,-0.9102,-0.9106,-0.9135,-0.9131,-0.9127,-0.918,-0.918,-0.918,0,0,-0.8194,-0.8255,-0.8289,-0.8347,-0.8435,-0.8497,-0.8504,-0.8607,-0.8647,-0.8707,-0.8774,-0.8822,-0.8923,-0.8982,-0.9024,-0.9014,-0.9062,-0.9031,-0.8996,-0.9021,-0.9018,-0.9015,-0.9011,-0.9009,-0.9032,-0.9032,-0.9032,0,-0.8143,-0.822,-0.83,-0.8347,-0.8391,-0.8472,-0.8508,-0.856,-0.8664,-0.8693,-0.8712,-0.8842,-0.8905,-0.897,-0.8968,-0.9,-0.9012,-0.902,-0.9012,-0.901,-0.9008,-0.9006,-0.9004,-0.9028,-0.9028,-0.9029,-0.9029,0,-0.8153,-0.8206,-0.8223,-0.832,-0.8366,-0.8407,-0.8494,-0.8531,-0.858,-0.864,-0.8701,-0.8779,-0.8858,-0.8878,-0.8926,-0.895,-0.8959,-0.8994,-0.9028,-0.8998,-0.8997,-0.8997,-0.9022,-0.9023,-0.9024,-0.9026,0,0,-0.8063,-0.8205,-0.821,-0.8256,-0.8359,-0.8402,-0.8447,-0.8524,-0.8554,-0.8623,-0.8663,-0.8748,-0.8781,-0.8829,-0.8885,-0.8907,-0.8894,-0.894,-0.8943,-0.8929,-0.8926,-0.8899,-0.8897,-0.8927,-0.8927,-0.8927,-0.8919,0,-0.8046,-0.8129,-0.8203,-0.826,-0.831,-0.8389,-0.8428,-0.8496,-0.8553,-0.8605,-0.8669,-0.8727,-0.8766,-0.8796,-0.8822,-0.889,-0.8895,-0.8892,-0.8966,-0.8968,-0.8942,-0.8897,-0.8868,-0.8857,-0.892,-0.892,-0.892,0,-0.8036,-0.8101,-0.8162,-0.8262,-0.8286,-0.8319,-0.8396,-0.8444,-0.8524,-0.8564,-0.8618,-0.8677,-0.8729,-0.8758,-0.8831,-0.8827,-0.8862,-0.89,-0.8902,-0.8912,-0.8941,-0.8905,-0.8855,-0.8853,-0.892,-0.892,-0.892,0,-0.7964,-0.8068,-0.8118,-0.8155,-0.8272,-0.8294,-0.8344,-0.8424,-0.8466,-0.8533,-0.8561,-0.8633,-0.8673,-0.8728,-0.8805,-0.8819,-0.8871,-0.8906,-0.8906,-0.8904,-0.8913,-0.8911,-0.8867,-0.8935,-0.8935,-0.8935,-0.8935,0,-0.7936,-0.7971,-0.8087,-0.8118,-0.816,-0.8245,-0.8284,-0.8341,-0.8412,-0.8456,-0.8529,-0.8569,-0.8668,-0.872,-0.8781,-0.8833,-0.885,-0.8885,-0.89,-0.8878,-0.8873,-0.8902,-0.8905,-0.8935,-0.8935,-0.8935,-0.8935,0,-0.7863,-0.7942,-0.8003,-0.8109,-0.8136,-0.8162,-0.8253,-0.8287,-0.8348,-0.8403,-0.8421,-0.8518,-0.8583,-0.8666,-0.8757,-0.8798,-0.8843,-0.8867,-0.8816,-0.8825,-0.882,-0.882,-0.8793,-0.8794,-0.886,-0.886,-0.8859,0,-0.784,-0.7869,-0.7977,-0.8012,-0.8059,-0.8114,-0.8157,-0.8242,-0.8284,-0.8377,-0.84,-0.847,-0.8531,-0.8632,-0.8711,-0.8782,-0.8808,-0.8794,-0.8819,-0.8796,-0.8808,-0.8805,-0.8809,-0.8787,-0.8786,-0.8785,-0.8784,0,-0.7791,-0.7829,-0.7887,-0.796,-0.8008,-0.807,-0.8134,-0.8159,-0.8258,-0.8301,-0.8368,-0.8416,-0.8509,-0.8579,-0.8659,-0.8712,-0.8765,-0.8776,-0.878,-0.8757,-0.8726,-0.8743,-0.8798,-0.8776,-0.8777,-0.8777,-0.8778,-0.8778,-0.7743,-0.7772,-0.7853,-0.7916,-0.7973,-0.8032,-0.8069,-0.8135,-0.8192,-0.8275,-0.8322,-0.8388,-0.8468,-0.8582,-0.8632,-0.8686,-0.8705,-0.8711,-0.8712,-0.8712,-0.8705,-0.8717,-0.8701,-0.8701,-0.8701,-0.8702,-0.8702,0,-0.7697,-0.7754,-0.7811,-0.7898,-0.7948,-0.7993,-0.8067,-0.8106,-0.8162,-0.8232,-0.8291,-0.8368,-0.8436,-0.8521,-0.8595,-0.8621,-0.8647,-0.8637,-0.8636,-0.8648,-0.8683,-0.8673,-0.8615,-0.8615,-0.8615,-0.8615,-0.8615,-0.8615,-0.768,-0.7731,-0.7779,-0.786,-0.7917,-0.7981,-0.802,-0.8075,-0.8131,-0.8214,-0.8271,-0.8325,-0.8401,-0.8481,-0.8546,-0.8569,-0.8593,-0.8576,-0.8606,-0.8638,-0.8645,-0.8652,-0.8643,-0.858,-0.858,-0.8567,-0.8566,-0.8566]}]]